Station ANTA2 - 9455920 - Anchorage, AK Image indicating link to RSS feed of recent meteorological observations for station ANTA2


Conditions at ANTA2 as of
(12:30 pm AKDT)
2030 GMT on 05/22/2024:
     

Click on the graph icon in the table below to see a time series plot of the last five days of that observation.

5-day plot - Wind Direction Wind Direction (WDIR):WNW ( 290 deg true )
5-day plot - Wind Speed Wind Speed (WSPD): 1.9 kts
5-day plot - Wind Gust Wind Gust (GST): 2.9 kts
5-day plot - Atmospheric Pressure Atmospheric Pressure (PRES):29.83 in
5-day plot - Air Temperature Air Temperature (ATMP): 48.2 °F
5-day plot - Water Temperature Water Temperature (WTMP): 46.8 °F
5-day plot - Wind Speed at 10 Meters Wind Speed at 10 meters (WSPD10M): 1.9 kts
5-day plot - Wind Speed at 20 Meters Wind Speed at 20 meters (WSPD20M): 1.9 kts
5-day plot -  Wind Speed, Wind Gust and Atmospheric Pressure Combined plot of Wind Speed, Gust, and Air Pressure
NOS Water Level Observation Network Water Level
Previous observations
TIME
(AKDT)
5-day plot - Wind Direction
WDIR
 
5-day plot - Wind Speed
WSPD
kts
5-day plot - Wind Gust
GST
kts
5-day plot - Wave Height
WVHT
ft
5-day plot - Dominant Wave Period
DPD
sec
5-day plot - Average Wave Period
APD
sec
5-day plot - Mean Wave Direction
MWD
 
5-day plot - Atmospheric Pressure
PRES
in
5-day plot - Pressure Tendency
PTDY
in
5-day plot - Air Temperature
ATMP
°F
5-day plot - Water Temperature
WTMP
°F
5-day plot - Dew Point
DEWP
°F
5-day plot - Salinity
SAL
psu
5-day plot - Visibility
VIS
nmi
5-day plot - Tide (above MLLW)
TIDE
ft
2024-05-22 12:24 pm W 2.9 2.9----29.83- 48.0 46.8----
2024-05-22 12:18 pm W 4.1 7.0----29.83- 47.7 46.9----
2024-05-22 12:12 pm W 6.0 7.0----29.83- 47.5 46.9----
2024-05-22 12:06 pm W 5.1 5.1----29.83- 48.0 47.1----
2024-05-22 12:00 pm W 2.9 5.1----29.83+0.00 48.0 47.1----
2024-05-22 11:54 am W 4.1 5.1----29.83- 47.8 46.9----
2024-05-22 11:48 am- 0.0 2.9----29.83- 48.2 46.8----
2024-05-22 11:42 am W 1.9 2.9----29.84- 48.2 46.8----
2024-05-22 11:36 am- 0.0 1.9----29.84- 48.0 46.8----
2024-05-22 11:30 amWNW 1.0 1.9----29.84- 48.0 46.8----
2024-05-22 11:24 amWNW 1.9 5.1----29.84- 47.8 46.8----
2024-05-22 11:18 am W 4.1 5.1----29.84- 47.5 46.8----
2024-05-22 11:12 am NW 2.9 4.1----29.84- 47.8 46.8----
2024-05-22 11:06 amNNW 2.9 4.1----29.83- 47.3 46.8----
2024-05-22 11:00 am- 0.0 1.9----29.83+0.01 47.5 46.8----
2024-05-22 10:54 am N 1.0 1.9----29.83- 47.3 46.8----
2024-05-22 10:48 am N 1.9 2.9----29.83- 47.1 46.8----
2024-05-22 10:42 am- 0.0 2.9----29.83- 47.1 46.6----
2024-05-22 10:36 am- 0.0 2.9----29.83- 47.1 46.6----
2024-05-22 10:30 am NW 1.9 4.1----29.83- 46.6 46.6----
2024-05-22 10:24 am NW 2.9 4.1----29.83- 46.4 46.4----
2024-05-22 10:18 amWNW 4.1 5.1------- 46.4----
2024-05-22 10:12 amWNW 4.1 6.0------- 46.4----
2024-05-22 10:06 amNNW 2.9 4.1------- 46.4----
2024-05-22 10:00 amWNW 1.9 4.1------- 46.4----
2024-05-22 09:54 am NW 2.9 4.1------- 46.2----
2024-05-22 09:48 am NW 2.9 4.1------- 46.2----
2024-05-22 09:42 am NW 4.1 6.0------- 46.2----
2024-05-22 09:36 am NW 5.1 7.0------- 46.2----
2024-05-22 09:30 am NW 5.1 7.0----29.83-------
2024-05-22 09:24 amNNW 4.1 6.0----29.83-------
2024-05-22 09:18 am- 0.0 2.9------- 46.2----
2024-05-22 09:12 am N 2.9 5.1------- 46.2----
2024-05-22 09:06 amNNW 5.1 5.1------- 46.2----
2024-05-22 09:00 am NW 2.9 4.1----29.83-0.01- 46.0----
2024-05-22 08:54 am NW 4.1 4.1----29.83-- 46.0----
2024-05-22 08:48 am NW 4.1 6.0------- 46.0----
2024-05-22 08:42 amNNW 5.1 6.0------- 46.0----
2024-05-22 08:36 am NW 5.1 6.0------- 46.0----
2024-05-22 08:30 amWNW 4.1 5.1------------
2024-05-22 08:24 amWNW 5.1 6.0------------
2024-05-22 08:18 amWNW 2.9 4.1------ 45.0 46.0----
2024-05-22 08:12 amWNW 1.9 2.9------ 45.1 46.0----
2024-05-22 08:06 amWNW 4.1 6.0------ 45.1 46.0----
2024-05-22 08:00 am W 4.1 4.1----29.83-0.02 45.3 46.0----
2024-05-22 07:54 amWNW 2.9 5.1----29.82- 45.1 46.0----
2024-05-22 07:48 am W 1.9 2.9----29.83- 45.0 46.0----
2024-05-22 07:42 am NW 2.9 5.1----29.83- 44.6 45.9----
2024-05-22 07:36 am W 5.1 6.0----29.83- 44.6 45.9----
2024-05-22 07:30 am W 4.1 5.1----29.83- 44.4 45.9----
2024-05-22 07:24 am W 2.9 4.1----29.83- 44.4 45.9----
2024-05-22 07:18 amNNW 4.1 7.0----29.83- 44.6 46.0----
2024-05-22 07:12 am NW 6.0 8.0----29.83- 44.6 46.0----
2024-05-22 07:06 amWNW 6.0 6.0----29.83- 44.4 46.0----
2024-05-22 07:00 amWNW 6.0 7.0----29.83-0.01 44.6 46.0----
2024-05-22 06:54 am W 1.9 4.1----29.83- 45.7 46.0----
2024-05-22 06:48 amNNW 5.1 8.0----29.83-- 46.0----
2024-05-22 06:42 am NW 6.0 7.0----29.83-- 46.2----
2024-05-22 06:36 am W 5.1 6.0----29.83-- 46.2----
2024-05-22 06:30 am SW 4.1 6.0------------
2024-05-22 06:24 am NE 2.9 7.0------------
2024-05-22 06:18 amNNW 5.1 7.0------------
2024-05-22 06:12 am NW 5.1 6.0------------
2024-05-22 06:06 am SW 1.9 2.9------------
2024-05-22 06:00 am N 1.9 5.1----29.84-0.02 45.5 46.6----
2024-05-22 05:54 amNNW 5.1 6.0----29.84- 45.7 46.6----
2024-05-22 05:48 am NW 5.1 7.0----29.84-- 46.6----
2024-05-22 05:42 am W 1.0 1.9----29.84-- 46.8----
2024-05-22 05:36 am S 1.9 7.0----29.84-- 46.8----
2024-05-22 05:30 amNNW 7.0 8.0------------
2024-05-22 05:24 am- 0.0 2.9------------
2024-05-22 05:18 amNNW 2.9 7.0----29.84-- 46.9----
2024-05-22 05:12 am NW 6.0 7.0----29.84-- 46.9----
2024-05-22 05:06 amNNW 5.1 8.0----29.85-- 47.1----
2024-05-22 05:00 am NW 7.0 8.9----29.85-0.02 45.7 47.1----
2024-05-22 04:54 am NW 7.0 8.9----29.85- 45.7 47.1----
2024-05-22 04:48 amNNW 5.1 6.0----29.85- 45.9 47.1----
2024-05-22 04:42 am N 7.0 8.9----29.85- 45.5 47.1----
2024-05-22 04:36 am N 6.0 7.0----29.85- 45.5 47.1----
2024-05-22 04:30 amNNE 2.9 8.0----29.85- 45.5 47.5----
2024-05-22 04:24 am N 6.0 8.0----29.85- 45.3 47.5----
2024-05-22 04:18 amNNE 4.1 5.1----29.85- 44.8 47.5----
2024-05-22 04:12 am NE 2.9 6.0----29.85- 44.6 47.5----
2024-05-22 04:06 amNNE 4.1 9.9----29.85- 44.8 47.5----
2024-05-22 04:00 am NW 7.0 12.0----29.85-0.04 45.7 47.7----
2024-05-22 03:54 am NW 8.0 11.1----29.85- 44.8 47.7----
2024-05-22 03:48 amWNW 8.9 14.0----29.85- 45.0 47.7----
2024-05-22 03:42 am NW 11.1 15.0----29.85- 44.4 47.7----
2024-05-22 03:36 am NW 12.0 15.0----29.85- 44.1 47.7----
2024-05-22 03:30 am NW 14.0 15.9----29.85- 44.1 47.7----
2024-05-22 03:24 am NW 11.1 13.0----29.85- 44.6 47.5----
2024-05-22 03:18 am NW 11.1 12.0----29.85- 44.6 47.3----
2024-05-22 03:12 am NW 8.9 11.1----29.85- 45.1 47.1----
2024-05-22 03:06 amWNW 7.0 11.1----29.85- 47.3 46.8----
2024-05-22 03:00 am N 8.0 8.9----29.85-0.04 46.4 46.9----
2024-05-22 02:54 amWNW 5.1 8.0----29.85- 47.8 46.8----
2024-05-22 02:48 am NW 5.1 8.9----29.86- 47.7 46.9----
2024-05-22 02:42 am NW 7.0 8.9----29.86- 46.4 47.1----
2024-05-22 02:36 am NW 8.9 9.9----29.86- 46.4 46.9----
2024-05-22 02:30 am NW 6.0 6.0----29.86- 46.2 46.8----
2024-05-22 02:24 am NW 4.1 5.1----29.86- 46.6 46.8----
2024-05-22 02:18 amWNW 1.0 2.9----29.87- 46.4 46.9----
2024-05-22 02:12 amWNW 2.9 5.1----29.87- 46.4 46.9----
2024-05-22 02:06 am W 4.1 5.1----29.87- 46.9 46.9----
2024-05-22 02:00 am S 1.0 6.0----29.87-0.02 47.1 47.1----
2024-05-22 01:54 am W 6.0 7.0----29.87- 46.8 47.1----
2024-05-22 01:48 amWSW 7.0 8.0----29.87- 47.7 47.1----
2024-05-22 01:42 amWSW 2.9 5.1----29.87- 46.2 47.1----
2024-05-22 01:36 am SW 2.9 5.1----29.88- 46.8 47.1----
2024-05-22 01:30 amWNW 5.1 6.0----29.88- 47.7 46.9----
2024-05-22 01:24 am W 2.9 5.1----29.88- 47.7 46.8----
2024-05-22 01:18 amSSW 2.9 2.9----29.88- 47.1 46.6----
2024-05-22 01:12 am- 0.0 6.0----29.88- 48.0 46.8----
2024-05-22 01:06 am N 5.1 5.1----29.88- 48.2 46.8----
2024-05-22 01:00 am N 1.9 4.1----29.89-0.01 48.0 46.8----
2024-05-22 12:54 amNNW 4.1 5.1----29.89- 48.2 46.9----
2024-05-22 12:48 am NW 4.1 4.1----29.89- 48.4 46.9----
2024-05-22 12:42 am N 4.1 5.1----29.89- 48.4 46.9----
2024-05-22 12:36 amNNW 5.1 5.1----29.89- 48.6 47.1----
2024-05-22 12:30 amNNW 4.1 6.0----29.90- 48.0 47.1----
2024-05-22 12:24 amNNW 6.0 6.0----29.90- 48.2 46.9----
2024-05-22 12:18 am N 1.9 4.1----29.90- 47.7 46.9----
2024-05-22 12:12 am N 2.9 4.1----29.90- 47.8 46.8----
2024-05-22 12:06 amNNE 1.0 4.1----29.90- 48.0 46.8----
2024-05-22 12:00 am N 4.1 7.0----29.90-0.01 47.7 46.8----
2024-05-21 11:54 pm N 6.0 8.0----29.90- 48.0 46.8----
2024-05-21 11:48 pm N 6.0 7.0----29.90- 48.2 46.8----
2024-05-21 11:42 pm N 7.0 7.0----29.90- 48.4 46.8----
2024-05-21 11:36 pm N 5.1 6.0----29.90- 48.2 46.8----
2024-05-21 11:30 pm N 6.0 8.0----29.90- 48.0 46.8----
2024-05-21 11:24 pm N 5.1 8.0----29.90- 48.0 46.8----
2024-05-21 11:18 pmNNE 2.9 5.1----29.90- 48.0 46.8----
2024-05-21 11:12 pm N 5.1 8.0----29.89- 48.0 46.8----
2024-05-21 11:06 pm N 7.0 8.0----29.89- 47.7 46.8----
2024-05-21 11:00 pmNNW 6.0 9.9----29.89-0.03 47.8 46.6----
2024-05-21 10:54 pm N 6.0 8.0----29.89- 47.8 46.6----
2024-05-21 10:48 pmNNE 1.9 5.1----29.90- 47.8 46.6----
2024-05-21 10:42 pm N 4.1 7.0----29.90- 47.8 46.6----
2024-05-21 10:36 pm N 7.0 8.0----29.89- 48.0 46.6----
2024-05-21 10:30 pm N 5.1 6.0----29.90- 48.2 46.6----
2024-05-21 10:24 pm N 4.1 6.0----29.90- 48.2 46.6----
2024-05-21 10:18 pmNNW 4.1 6.0----29.90- 48.2 46.6----
2024-05-21 10:12 pm NW 1.9 5.1----29.90- 47.8 46.4----
2024-05-21 10:06 pm NW 4.1 5.1----29.90- 48.0 46.4----
2024-05-21 10:00 pmNNW 4.1 5.1----29.90-0.03 48.2 46.4----
2024-05-21 09:54 pm NW 2.9 4.1----29.90- 48.0 46.4----
2024-05-21 09:48 pm NW 1.9 5.1----29.90- 48.2 46.4----
2024-05-21 09:42 pm NW 5.1 6.0----29.90- 48.2 46.4----
2024-05-21 09:36 pm NW 6.0 7.0----29.90- 48.4 46.4----
2024-05-21 09:30 pm NW 5.1 6.0----29.90- 48.4 46.4----
2024-05-21 09:24 pm NW 5.1 5.1----29.90- 48.2 46.4----
2024-05-21 09:18 pm NW 4.1 5.1----29.91- 48.0 46.4----
2024-05-21 09:12 pmNNW 5.1 5.1----29.91- 48.2 46.4----
2024-05-21 09:06 pm N 2.9 5.1----29.91- 47.8 46.4----
2024-05-21 09:00 pm NW 5.1 7.0----29.91-0.02 48.2 46.2----
2024-05-21 08:54 pmWNW 5.1 5.1----29.91- 48.4 46.2----
2024-05-21 08:48 pmWNW 4.1 6.0----29.91- 48.2 46.0----
2024-05-21 08:42 pmNNW 5.1 5.1----29.91- 47.8 46.0----
2024-05-21 08:36 pmNNW 5.1 5.1----29.91- 47.8 45.9----
2024-05-21 08:30 pm N 4.1 5.1----29.91- 48.0 45.9----
2024-05-21 08:24 pm N 4.1 5.1----29.91- 48.0 45.9----
2024-05-21 08:18 pmNNE 2.9 5.1----29.92- 48.0 45.9----
2024-05-21 08:12 pm N 4.1 4.1----29.92- 47.7 45.9----
2024-05-21 08:06 pmNNW 2.9 4.1----29.92- 47.5 45.9----
2024-05-21 08:00 pm NW 1.9 1.9----29.92-0.01 47.5 45.9----
2024-05-21 07:54 pmNNW 1.9 2.9----29.93- 47.5 45.9----
2024-05-21 07:48 pmNNW 1.9 2.9----29.93- 47.5 46.2----
2024-05-21 07:42 pmWNW 2.9 5.1----29.93- 47.7 46.2----
2024-05-21 07:36 pm NW 4.1 5.1----29.93- 47.7 46.2----
2024-05-21 07:30 pm W 4.1 6.0----29.93- 47.7 46.4----
2024-05-21 07:24 pmNNW 6.0 7.0----29.93- 48.0 46.4----
2024-05-21 07:18 pmNNW 7.0 7.0----29.93- 48.2 46.6----
2024-05-21 07:12 pm NW 2.9 4.1----29.93- 47.7 46.6----
2024-05-21 07:06 pm N 4.1 6.0----29.93- 47.8 46.6----
2024-05-21 07:00 pm N 6.0 7.0----29.93-0.02 48.0 46.6----
2024-05-21 06:54 pm N 6.0 7.0----29.93- 48.0 46.6----
2024-05-21 06:48 pmNNW 6.0 7.0----29.93- 48.2 46.8----
2024-05-21 06:42 pm N 6.0 7.0----29.93- 48.2 46.9----
2024-05-21 06:36 pmNNW 7.0 7.0----29.93- 48.2 46.9----
2024-05-21 06:30 pm N 5.1 5.1----29.93- 48.2 46.9----
2024-05-21 06:24 pm N 5.1 6.0----29.93- 48.2 46.9----
2024-05-21 06:18 pm N 5.1 5.1----29.93- 48.4 46.9----
2024-05-21 06:12 pm NW 4.1 4.1----29.93- 48.4 46.9----
2024-05-21 06:06 pmNNW 5.1 8.0----29.93- 48.2 46.9----
2024-05-21 06:00 pm N 6.0 8.0----29.93-0.01 48.2 47.1----
2024-05-21 05:54 pm N 7.0 8.0----29.93- 48.2 47.1----
2024-05-21 05:48 pmNNW 7.0 8.9----29.93- 48.2 46.9----
2024-05-21 05:42 pm N 7.0 8.0----29.93- 48.2 46.9----
2024-05-21 05:36 pmNNW 6.0 7.0----29.93- 48.4 46.9----
2024-05-21 05:30 pm N 5.1 6.0----29.94- 48.4 46.9----
2024-05-21 05:24 pm N 5.1 6.0----29.94- 48.4 47.3----
2024-05-21 05:18 pmNNW 5.1 8.0----29.94- 48.2 47.5----
2024-05-21 05:12 pmNNW 7.0 8.0----29.93- 48.4 47.5----
2024-05-21 05:06 pm N 7.0 8.0----29.93- 48.2 47.7----
2024-05-21 05:00 pm N 5.1 8.0----29.93-0.02 48.0 47.8----
2024-05-21 04:54 pm N 4.1 8.0----29.94- 48.4 47.8----
2024-05-21 04:48 pm N 7.0 8.0----29.93- 48.0 47.7----
2024-05-21 04:42 pm N 6.0 7.0----29.94- 47.8 47.8----
2024-05-21 04:36 pm N 5.1 6.0----29.94- 47.8 47.7----
2024-05-21 04:30 pm N 5.1 7.0----29.94- 47.8 47.8----
2024-05-21 04:24 pm N 6.0 7.0----29.94- 47.8 47.8----
2024-05-21 04:18 pmNNW 6.0 7.0----29.94- 47.8 47.8----
2024-05-21 04:12 pm NW 6.0 6.0----29.94- 47.7 47.8----
2024-05-21 04:06 pm NW 5.1 7.0----29.95- 47.7 48.6----
2024-05-21 04:00 pm NW 6.0 7.0----29.95-0.01 47.5 48.7----
2024-05-21 03:54 pm NW 6.0 8.0----29.95- 47.5 48.6----
2024-05-21 03:48 pmWNW 6.0 7.0----29.95- 47.8 48.6----
2024-05-21 03:42 pmWNW 5.1 7.0----29.95- 47.8 48.6----
2024-05-21 03:36 pmWNW 7.0 8.0----29.95- 47.7 48.6----
2024-05-21 03:30 pmWNW 7.0 7.0----29.95- 47.8 48.4----
2024-05-21 03:24 pm NW 6.0 7.0----29.96- 47.7 48.2----
2024-05-21 03:18 pm NW 5.1 7.0----29.96- 47.7 48.0----
2024-05-21 03:12 pm NW 7.0 8.0----29.95- 47.5 48.0----
2024-05-21 03:06 pm NW 6.0 7.0----29.95- 47.5 48.0----
2024-05-21 03:00 pm NW 7.0 8.0----29.95+0.00 47.3 48.0----
2024-05-21 02:54 pm NW 7.0 7.0----29.95- 47.1 48.0----
2024-05-21 02:48 pm NW 6.0 8.0----29.95- 46.9 47.8----
2024-05-21 02:42 pm NW 7.0 8.0----29.95- 46.8 47.8----
2024-05-21 02:36 pmNNW 6.0 9.9----29.95- 46.8 47.8----
2024-05-21 02:30 pm N 9.9 12.0----29.95- 46.6 47.8----
2024-05-21 02:24 pm N 9.9 11.1----29.94- 46.6 47.7----
2024-05-21 02:18 pm N 8.0 11.1----29.95- 46.6 47.7----
2024-05-21 02:12 pm N 9.9 11.1----29.95- 46.8 47.5----
2024-05-21 02:06 pm N 7.0 8.9----29.95- 46.8 47.5----
2024-05-21 02:00 pm N 8.0 8.9----29.96+0.00 46.8 47.1----
2024-05-21 01:54 pm N 8.0 8.9----29.96- 46.8 47.1----
2024-05-21 01:48 pm N 8.0 9.9----29.96- 46.8 47.1----
2024-05-21 01:42 pmNNE 4.1 8.9----29.96- 47.1 47.1----
2024-05-21 01:36 pm N 5.1 11.1----29.96- 46.9 46.9----
2024-05-21 01:30 pm N 8.9 11.1----29.96-- 46.9----
2024-05-21 01:24 pm N 5.1 7.0----29.96-- 46.8----
2024-05-21 01:18 pm N 6.0 8.9----29.96-- 46.8----
2024-05-21 01:12 pm NW 7.0 8.0----29.96-- 46.8----
2024-05-21 01:06 pm NW 8.0 8.9----29.96-- 46.6----
2024-05-21 01:00 pm NW 8.0 8.9----29.96-0.01 46.9 46.6----
2024-05-21 12:54 pm NW 7.0 8.0----29.96- 47.1 46.6----